Погода в Приморске

Украина / Запорожская область     46°43′33″N   36°21′24″E
темп.,
°C
ветер,
м/с
пор.,
м/с
влажн.,
%
обл.,
%
осадки,
мм/ч
давл.,
гПа
погр.,
м
25 июня, сб
сб2500:00+16в34782 0.0 1008331
03:00+17вюв34755 0.0 1009293
06:00+17всв357951 0.0 1010372
09:00+22вюв67595 0.1 10111426
12:00+23юв67580 0.0 10121388
15:00+24вюв4750100 0.0 10111239
18:00+24вюв4553100 0.1 1011909
21:00+21в476495 0.3 1012282
26 июня, вс
вс2600:00+19св457098 0.2 1012121
03:00+18св467117 0.2 1013140
06:00+18ссв5969100 0.0 1013226
09:00+24св575578 0.0 1013751
12:00+27вюв7749100 0.1 10131903
15:00+21в5973100 0.2 1014587
18:00+21ссв6976100 0.1 1014414
21:00+21с51178100 0.1 1014288
27 июня, пн
пн2700:00+21св277198 0.1 1014284
03:00+22св61259100 0.1 1013538
06:00+22всв81357100 0.0 1014665
09:00+24всв91153100 0.0 10141169
12:00+23вюв81164100 0.1 10151030
15:00+20в91481100 1.2 1016761
18:00+23в81469100 0.0 1015975
21:00+22всв61170100 0.0 1016698
28 июня, вт
вт2800:00+21св4969100 0.0 1015280
03:00+21св5116594 0.0 1015319
06:00+22св61150100 0.1 1014293
09:00+25в81041100 0.1 1015939
12:00+22юв7861100 0.0 1016585
15:00+24ююв4358100 0.0 1015491
18:00+23юз336087 0.0 1015268
21:00+20зюз3468100 0.0 1015104
29 июня, ср
ср2900:00+19зсз347176 0.0 101583
03:00+20св4882100 0.3 1014165
06:00+21св611815 0.0 1015301
09:00+26всв68604 0.0 1015759
12:00+28в775446 0.0 10151721
15:00+27вюв795454 0.1 10141040
18:00+27вюв574977 0.0 1014614
21:00+25св510476 0.0 1015260